Regional Weather Roundup
Issued by NWS

Home | Current Version | Previous Version | Text Only | Print | Product List | Glossary On
Versions: 1 2 3 4 5 6 7 8 9 10 11 12 13 14 15 16 17 18 19 20 21 22 23 24 25 26 27 28 29 30 31 32 33 34 35 36 37 38 39 40 41 42 43 44 45 46 47 48 49 50
000
ASUS42 KFFC 011003
RWRGA
WEATHER ROUNDUP FOR GEORGIA
NATIONAL WEATHER SERVICE PEACHTREE CITY GA
500 AM EST SUN FEB 01 2015

NOTE: "FAIR" INDICATES FEW OR NO CLOUDS BELOW 12,000 FEET WITH NO
SIGNIFICANT WEATHER AND/OR OBSTRUCTIONS TO VISIBILITY.

* = USE WITH CAUTION. THE STATIONS MARKED WITH AN ASTERISK MAY NOT
REPORT WEATHER SUCH AS PRECIPITATION, FOG, OR THUNDER AND ARE NOT
QUALITY CONTROLLED BY NWS.

THE REMARK "TC" DENOTES TEMPERATURE READING IN DEGREES CELSIUS.

GAZ001>058-011100-
NORTH GEORGIA

CITY           SKY/WX    TMP DP  RH WIND       PRES   REMARKS
ATLANTA        CLOUDY    42  24  49 SE3       30.20F
ATHENS         CLOUDY    41  26  55 S5        30.23S
CHAMBLEE       CLOUDY    42  23  46 CALM      30.20F
PEACHTREE CITY CLOUDY    38  29  70 CALM      30.20F
ROME           MOCLDY    35  29  78 W3        30.19F
WEST ATLANTA   CLOUDY    38  30  73 CALM      30.20F
GAINESVILLE    CLOUDY    41  20  43 E3        30.23S
CARTERSVILLE   MOCLDY    39  25  57 SE5       30.19F


CITY           SKY/WX    TMP DP  RH WIND       PRES   REMARKS
DALTON*        CLOUDY    37  32  81 CALM      30.19F
MARIETTA       CLOUDY    39  28  63 NE1       30.20S
$$

GAZ059>098-102>109-011100-
CENTRAL GEORGIA

CITY           SKY/WX    TMP DP  RH WIND       PRES   REMARKS
AUGUSTA-BUSH   MOCLDY    35  28  75 CALM      30.28F
AUGUSTA-DANIEL MOCLDY    43  25  49 SE3       30.27F
COLUMBUS       MOCLDY    42  30  62 E3        30.20F
MACON          MOCLDY    37  32  82 CALM      30.24F
ROBINS AFB     MOCLDY    37  32  82 CALM      30.25S


CITY           SKY/WX    TMP DP  RH WIND       PRES   REMARKS
LAGRANGE*      MOCLDY    42  34  74 CALM      30.19S
SYLVANIA*      MOCLDY    36  36  97 CALM      30.28F
MILLEDGEVILLE* MOCLDY    37  34  87 CALM      30.25F
$$

GAZ099>101-110>166-011100-
SOUTH GEORGIA

CITY           SKY/WX    TMP DP  RH WIND       PRES   REMARKS
SAVANNAH       MOCLDY    38  35  89 CALM      30.28F
VALDOSTA       CLEAR     39  36  89 CALM      30.24S
ALMA           PTCLDY    38  35  89 CALM      30.25S
ST SIMONS      CLOUDY    49  46  90 E6        30.26S
FT STEWART     MOCLDY    37  34  89 CALM      30.25F
ALBANY         PTCLDY    40  36  86 E3        30.24F
HUNTER AFB     MOCLDY    39  37  93 E1        30.25F
MOODY AFB      CLEAR     40  36  86 E5        30.23S
BRUNSWICK      CLOUDY    41  37  87 CALM      30.26F


CITY           SKY/WX    TMP DP  RH WIND       PRES   REMARKS
BAINBRIDGE*    PTCLDY    45  41  87 E5        30.21F
MOULTRIE*      PTCLDY    41  37  87 CALM      30.23F
VIDALIA*       MOCLDY    39  36  87 E3        30.25F
WAYCROSS*      PTCLDY    44  42  92 CALM      30.24F
DOUGLAS*       PTCLDY    43  37  81 E3        30.26R
$$


USA.gov is the U.S. government's official web portal to all federal, state and local government web resources and services.